Time,TemperatureF,DewpointF,PressureIn,WindDirection,WindDirectionDegrees,WindSpeedMPH,WindSpeedGustMPH,Humidity,HourlyPrecipIn,Conditions,Clouds,dailyrainin,SoftwareType,DateUTC
2013-01-26 00:00:00,46.2,35.1,29.59,NNE,29,5.0,9.0,65,0.00,,,0.00,VWS V14.01,2013-01-25 23:00:00,
2013-01-26 00:03:00,46.1,35.0,29.59,NNE,19,5.0,9.0,65,0.00,,,0.00,VWS V14.01,2013-01-25 23:03:00,
2013-01-26 00:08:00,45.9,35.2,29.59,NE,34,6.0,8.0,66,0.00,,,0.00,VWS V14.01,2013-01-25 23:08:00,
2013-01-26 00:10:00,45.8,35.1,29.59,NE,36,8.0,9.0,66,0.00,,,0.00,VWS V14.01,2013-01-25 23:10:00,
2013-01-26 00:13:00,45.8,35.1,29.59,NE,53,4.0,9.0,66,0.00,,,0.00,VWS V14.01,2013-01-25 23:13:00,
2013-01-26 00:18:00,45.7,35.0,29.59,NNE,30,6.0,8.0,66,0.00,,,0.00,VWS V14.01,2013-01-25 23:18:00,
2013-01-26 00:20:00,45.7,35.0,29.59,NE,36,3.0,9.0,66,0.00,,,0.00,VWS V14.01,2013-01-25 23:20:00,
2013-01-26 00:23:00,45.7,35.0,29.59,NE,37,4.0,9.0,66,0.00,,,0.00,VWS V14.01,2013-01-25 23:23:00,
2013-01-26 00:28:00,45.1,34.4,29.59,NNE,28,5.0,8.0,66,0.00,,,0.00,VWS V14.01,2013-01-25 23:28:00,
2013-01-26 00:30:00,44.9,35.0,29.59,NE,49,9.0,9.0,68,0.00,,,0.00,VWS V14.01,2013-01-25 23:30:00,
2013-01-26 00:34:00,44.8,34.9,29.59,NE,45,3.0,8.0,68,0.00,,,0.00,VWS V14.01,2013-01-25 23:34:00,
2013-01-26 00:39:00,46.7,34.8,29.59,NE,38,12.0,16.0,63,0.00,,,0.00,VWS V14.01,2013-01-25 23:39:00,
2013-01-26 00:40:00,46.5,34.2,29.59,ENE,58,9.0,16.0,62,0.00,,,0.00,VWS V14.01,2013-01-25 23:40:00,
2013-01-26 00:44:00,46.6,34.3,29.59,NE,40,8.0,16.0,62,0.00,,,0.00,VWS V14.01,2013-01-25 23:44:00,
2013-01-26 00:49:00,46.4,34.1,29.59,NE,49,7.0,12.0,62,0.00,,,0.00,VWS V14.01,2013-01-25 23:49:00,
2013-01-26 00:50:00,46.6,33.9,29.59,NE,49,8.0,12.0,61,0.00,,,0.00,VWS V14.01,2013-01-25 23:50:00,
2013-01-26 00:54:00,46.7,34.0,29.59,NE,42,3.0,12.0,61,0.00,,,0.00,VWS V14.01,2013-01-25 23:54:00,
2013-01-26 00:59:00,46.5,33.8,29.59,NE,46,6.0,13.0,61,0.00,,,0.00,VWS V14.01,2013-01-25 23:59:00,
2013-01-26 01:00:00,46.6,33.9,29.59,ENE,71,9.0,17.0,61,0.00,,,0.00,VWS V14.01,2013-01-26 00:00:00,
2013-01-26 01:04:00,46.6,33.9,29.59,NE,45,7.0,17.0,61,0.00,,,0.00,VWS V14.01,2013-01-26 00:04:00,
2013-01-26 01:09:00,46.4,34.1,29.59,ENE,66,7.0,12.0,62,0.00,,,0.00,VWS V14.01,2013-01-26 00:09:00,
2013-01-26 01:10:00,46.4,34.1,29.59,NE,37,14.0,16.0,62,0.00,,,0.00,VWS V14.01,2013-01-26 00:10:00,
2013-01-26 01:13:00,46.3,34.0,29.59,NE,54,15.0,15.0,62,0.00,,,0.00,VWS V14.01,2013-01-26 00:13:00,
2013-01-26 01:18:00,46.3,34.0,29.59,NE,53,8.0,14.0,62,0.00,,,0.00,VWS V14.01,2013-01-26 00:18:00,
2013-01-26 01:20:00,46.4,33.7,29.59,NE,46,7.0,14.0,61,0.00,,,0.00,VWS V14.01,2013-01-26 00:20:00,
2013-01-26 01:23:00,46.4,33.7,29.59,ENE,69,4.0,14.0,61,0.00,,,0.00,VWS V14.01,2013-01-26 00:23:00,
2013-01-26 01:28:00,46.0,33.7,29.59,NE,48,9.0,11.0,62,0.00,,,0.00,VWS V14.01,2013-01-26 00:28:00,
2013-01-26 01:30:00,45.9,33.6,29.59,NE,49,7.0,13.0,62,0.00,,,0.00,VWS V14.01,2013-01-26 00:30:00,
2013-01-26 01:33:00,45.9,33.6,29.59,NE,44,6.0,13.0,62,0.00,,,0.00,VWS V14.01,2013-01-26 00:33:00,
2013-01-26 01:39:00,45.9,33.6,29.59,ENE,58,14.0,16.0,62,0.00,,,0.00,VWS V14.01,2013-01-26 00:39:00,
2013-01-26 01:40:00,45.9,33.6,29.59,ENE,66,4.0,16.0,62,0.00,,,0.00,VWS V14.01,2013-01-26 00:40:00,
2013-01-26 01:44:00,46.0,33.7,29.59,NE,55,6.0,16.0,62,0.00,,,0.00,VWS V14.01,2013-01-26 00:44:00,
2013-01-26 01:48:00,46.0,33.3,29.59,NE,54,7.0,13.0,61,0.00,,,0.00,VWS V14.01,2013-01-26 00:48:00,
2013-01-26 01:50:00,46.0,33.3,29.59,NE,54,8.0,14.0,61,0.00,,,0.00,VWS V14.01,2013-01-26 00:50:00,
2013-01-26 01:54:00,46.0,33.3,29.59,NE,54,8.0,14.0,61,0.00,,,0.00,VWS V14.01,2013-01-26 00:54:00,
2013-01-26 01:59:00,46.1,33.4,29.59,ENE,60,9.0,17.0,61,0.00,,,0.00,VWS V14.01,2013-01-26 00:59:00,
2013-01-26 02:00:00,45.8,33.5,29.60,ENE,62,4.0,17.0,62,0.00,,,0.00,VWS V14.01,2013-01-26 01:00:00,
2013-01-26 02:04:00,45.9,33.2,29.60,ENE,62,5.0,17.0,61,0.00,,,0.00,VWS V14.01,2013-01-26 01:04:00,
2013-01-26 02:09:00,45.8,33.5,29.60,ENE,59,5.0,9.0,62,0.00,,,0.00,VWS V14.01,2013-01-26 01:09:00,
2013-01-26 02:10:00,45.7,33.0,29.60,NE,56,3.0,10.0,61,0.00,,,0.00,VWS V14.01,2013-01-26 01:10:00,
2013-01-26 02:14:00,45.8,33.1,29.60,NE,45,6.0,10.0,61,0.00,,,0.00,VWS V14.01,2013-01-26 01:14:00,
2013-01-26 02:19:00,45.7,33.4,29.60,NE,52,8.0,9.0,62,0.00,,,0.00,VWS V14.01,2013-01-26 01:19:00,
2013-01-26 02:20:00,45.5,33.2,29.60,ENE,77,9.0,13.0,62,0.00,,,0.00,VWS V14.01,2013-01-26 01:20:00,
2013-01-26 02:24:00,45.5,33.2,29.60,NE,49,6.0,13.0,62,0.00,,,0.00,VWS V14.01,2013-01-26 01:24:00,
2013-01-26 02:29:00,45.7,33.0,29.60,ENE,59,10.0,13.0,61,0.00,,,0.00,VWS V14.01,2013-01-26 01:29:00,
2013-01-26 02:30:00,45.7,32.6,29.60,NE,40,5.0,13.0,60,0.00,,,0.00,VWS V14.01,2013-01-26 01:30:00,
2013-01-26 02:34:00,45.7,32.6,29.60,NE,43,5.0,13.0,60,0.00,,,0.00,VWS V14.01,2013-01-26 01:34:00,
2013-01-26 02:39:00,45.3,32.7,29.60,NE,55,4.0,7.0,61,0.00,,,0.00,VWS V14.01,2013-01-26 01:39:00,
2013-01-26 02:40:00,45.1,32.9,29.60,NE,51,3.0,12.0,62,0.00,,,0.00,VWS V14.01,2013-01-26 01:40:00,
2013-01-26 02:44:00,45.0,32.8,29.60,NNE,32,11.0,12.0,62,0.00,,,0.00,VWS V14.01,2013-01-26 01:44:00,
2013-01-26 02:49:00,45.0,32.8,29.60,ENE,57,12.0,13.0,62,0.00,,,0.00,VWS V14.01,2013-01-26 01:49:00,
2013-01-26 02:50:00,44.9,32.7,29.60,ENE,72,8.0,14.0,62,0.00,,,0.00,VWS V14.01,2013-01-26 01:50:00,
2013-01-26 02:54:00,44.9,32.7,29.60,ENE,70,13.0,14.0,62,0.00,,,0.00,VWS V14.01,2013-01-26 01:54:00,
2013-01-26 02:59:00,45.1,32.5,29.60,ENE,63,10.0,14.0,61,0.00,,,0.00,VWS V14.01,2013-01-26 01:59:00,
2013-01-26 03:00:00,45.2,32.2,29.60,NNE,29,13.0,22.0,60,0.00,,,0.00,VWS V14.01,2013-01-26 02:00:00,
2013-01-26 03:04:00,45.2,32.2,29.60,NNE,30,12.0,22.0,60,0.00,,,0.00,VWS V14.01,2013-01-26 02:04:00,
2013-01-26 03:09:00,45.2,32.2,29.60,NE,47,17.0,19.0,60,0.00,,,0.00,VWS V14.01,2013-01-26 02:09:00,
2013-01-26 03:10:00,45.1,32.1,29.60,ENE,57,12.0,21.0,60,0.00,,,0.00,VWS V14.01,2013-01-26 02:10:00,
2013-01-26 03:14:00,45.0,32.0,29.60,NE,44,10.0,21.0,60,0.00,,,0.00,VWS V14.01,2013-01-26 02:14:00,
2013-01-26 03:19:00,45.0,32.0,29.60,ENE,71,7.0,14.0,60,0.00,,,0.00,VWS V14.01,2013-01-26 02:19:00,
2013-01-26 03:20:00,44.7,32.1,29.60,ENE,71,15.0,15.0,61,0.00,,,0.00,VWS V14.01,2013-01-26 02:20:00,
2013-01-26 03:24:00,44.7,31.7,29.60,ENE,75,8.0,14.0,60,0.00,,,0.00,VWS V14.01,2013-01-26 02:24:00,
2013-01-26 03:29:00,44.7,32.1,29.60,East,81,10.0,15.0,61,0.00,,,0.00,VWS V14.01,2013-01-26 02:29:00,
2013-01-26 03:30:00,45.0,32.4,29.60,East,84,11.0,15.0,61,0.00,,,0.00,VWS V14.01,2013-01-26 02:30:00,
2013-01-26 03:34:00,44.9,32.3,29.60,NE,50,9.0,15.0,61,0.00,,,0.00,VWS V14.01,2013-01-26 02:34:00,
2013-01-26 03:39:00,45.1,32.5,29.60,ENE,63,10.0,16.0,61,0.00,,,0.00,VWS V14.01,2013-01-26 02:39:00,
2013-01-26 03:40:00,45.3,32.2,29.59,East,82,9.0,21.0,60,0.00,,,0.00,VWS V14.01,2013-01-26 02:40:00,
2013-01-26 03:44:00,45.3,32.2,29.59,East,82,9.0,21.0,60,0.00,,,0.00,VWS V14.01,2013-01-26 02:44:00,
2013-01-26 03:49:00,45.1,32.5,29.59,ENE,63,10.0,19.0,61,0.00,,,0.00,VWS V14.01,2013-01-26 02:49:00,
2013-01-26 03:50:00,45.1,32.5,29.59,ENE,63,11.0,19.0,61,0.00,,,0.00,VWS V14.01,2013-01-26 02:50:00,
2013-01-26 03:55:00,45.1,32.5,29.59,ENE,63,11.0,19.0,61,0.00,,,0.00,VWS V14.01,2013-01-26 02:55:00,
2013-01-26 04:00:00,45.4,32.3,29.59,ENE,65,12.0,18.0,60,0.00,,,0.00,VWS V14.01,2013-01-26 03:00:00,
2013-01-26 04:05:00,45.1,32.5,29.59,ENE,62,7.0,7.0,61,0.00,,,0.00,VWS V14.01,2013-01-26 03:05:00,
2013-01-26 04:10:00,44.9,32.7,29.59,NE,43,11.0,12.0,62,0.00,,,0.00,VWS V14.01,2013-01-26 03:10:00,
2013-01-26 04:15:00,44.9,32.7,29.59,NE,53,7.0,12.0,62,0.00,,,0.00,VWS V14.01,2013-01-26 03:15:00,
2013-01-26 04:20:00,44.9,32.7,29.59,ENE,57,5.0,13.0,62,0.00,,,0.00,VWS V14.01,2013-01-26 03:20:00,
2013-01-26 04:25:00,44.6,32.4,29.59,ENE,58,4.0,5.0,62,0.00,,,0.00,VWS V14.01,2013-01-26 03:25:00,
2013-01-26 04:30:00,44.3,32.5,29.60,NE,38,5.0,6.0,63,0.00,,,0.00,VWS V14.01,2013-01-26 03:30:00,
2013-01-26 04:35:00,44.2,32.8,29.60,NE,48,6.0,6.0,64,0.00,,,0.00,VWS V14.01,2013-01-26 03:35:00,
2013-01-26 04:40:00,44.0,33.0,29.60,NE,38,6.0,8.0,65,0.00,,,0.00,VWS V14.01,2013-01-26 03:40:00,
2013-01-26 04:45:00,44.4,33.0,29.60,NE,55,7.0,8.0,64,0.00,,,0.00,VWS V14.01,2013-01-26 03:45:00,
2013-01-26 04:50:00,44.4,33.0,29.60,ENE,61,7.0,7.0,64,0.00,,,0.00,VWS V14.01,2013-01-26 03:50:00,
2013-01-26 04:55:00,44.6,33.2,29.60,NE,51,6.0,8.0,64,0.00,,,0.00,VWS V14.01,2013-01-26 03:55:00,
2013-01-26 05:00:00,44.7,33.3,29.60,NE,47,5.0,11.0,64,0.00,,,0.00,VWS V14.01,2013-01-26 04:00:00,
2013-01-26 05:05:00,44.5,33.1,29.60,ENE,57,4.0,7.0,64,0.00,,,0.00,VWS V14.01,2013-01-26 04:05:00,
2013-01-26 05:10:00,44.2,33.2,29.60,East,91,8.0,8.0,65,0.00,,,0.00,VWS V14.01,2013-01-26 04:10:00,
2013-01-26 05:15:00,44.4,33.4,29.60,NE,53,4.0,4.0,65,0.00,,,0.00,VWS V14.01,2013-01-26 04:15:00,
2013-01-26 05:20:00,44.4,33.4,29.60,NE,49,3.0,6.0,65,0.00,,,0.00,VWS V14.01,2013-01-26 04:20:00,
2013-01-26 05:25:00,43.7,33.1,29.60,NE,44,4.0,5.0,66,0.00,,,0.00,VWS V14.01,2013-01-26 04:25:00,
2013-01-26 05:30:00,43.3,33.1,29.60,NE,43,5.0,7.0,67,0.00,,,0.00,VWS V14.01,2013-01-26 04:30:00,
2013-01-26 05:35:00,43.2,33.4,29.60,NE,46,7.0,7.0,68,0.00,,,0.00,VWS V14.01,2013-01-26 04:35:00,
2013-01-26 05:40:00,43.5,33.7,29.60,NE,42,5.0,7.0,68,0.00,,,0.00,VWS V14.01,2013-01-26 04:40:00,
2013-01-26 05:45:00,43.6,33.8,29.60,ENE,61,4.0,4.0,68,0.00,,,0.00,VWS V14.01,2013-01-26 04:45:00,
2013-01-26 05:50:00,43.6,33.8,29.60,ENE,59,3.0,5.0,68,0.00,,,0.00,VWS V14.01,2013-01-26 04:50:00,
2013-01-26 05:55:00,43.3,33.5,29.60,ENE,57,3.0,3.0,68,0.00,,,0.00,VWS V14.01,2013-01-26 04:55:00,
2013-01-26 06:00:00,42.8,33.3,29.61,ENE,57,3.0,4.0,69,0.00,,,0.00,VWS V14.01,2013-01-26 05:00:00,
2013-01-26 06:01:00,42.7,33.2,29.61,ENE,57,3.0,4.0,69,0.00,,,0.00,VWS V14.01,2013-01-26 05:01:00,
2013-01-26 06:02:00,42.6,33.2,29.61,ENE,57,4.0,4.0,69,0.00,,,0.00,VWS V14.01,2013-01-26 05:02:00,
2013-01-26 06:07:00,42.2,33.5,29.61,NE,40,5.0,5.0,71,0.00,,,0.00,VWS V14.01,2013-01-26 05:07:00,
2013-01-26 06:10:00,42.3,33.6,29.61,NNE,28,5.0,6.0,71,0.00,,,0.00,VWS V14.01,2013-01-26 05:10:00,
2013-01-26 06:12:00,42.4,33.7,29.61,NNE,24,6.0,6.0,71,0.00,,,0.00,VWS V14.01,2013-01-26 05:12:00,
2013-01-26 06:17:00,42.3,33.6,29.62,NE,34,2.0,6.0,71,0.00,,,0.00,VWS V14.01,2013-01-26 05:17:00,
2013-01-26 06:20:00,42.2,33.5,29.62,NNE,24,3.0,6.0,71,0.00,,,0.00,VWS V14.01,2013-01-26 05:20:00,
2013-01-26 06:22:00,42.2,33.8,29.62,NNE,24,3.0,6.0,72,0.00,,,0.00,VWS V14.01,2013-01-26 05:22:00,
2013-01-26 06:27:00,42.2,33.8,29.62,NNE,32,4.0,6.0,72,0.00,,,0.00,VWS V14.01,2013-01-26 05:27:00,
2013-01-26 06:30:00,42.3,33.9,29.62,NNE,33,3.0,7.0,72,0.00,,,0.00,VWS V14.01,2013-01-26 05:30:00,
2013-01-26 06:32:00,42.3,33.9,29.62,NNE,26,3.0,7.0,72,0.00,,,0.00,VWS V14.01,2013-01-26 05:32:00,
2013-01-26 06:37:00,42.3,33.9,29.62,NNE,31,3.0,5.0,72,0.00,,,0.00,VWS V14.01,2013-01-26 05:37:00,
2013-01-26 06:40:00,42.6,34.2,29.62,NE,45,4.0,7.0,72,0.00,,,0.00,VWS V14.01,2013-01-26 05:40:00,
2013-01-26 06:42:00,42.3,33.9,29.63,NE,35,3.0,6.0,72,0.00,,,0.00,VWS V14.01,2013-01-26 05:42:00,
2013-01-26 06:47:00,43.0,34.2,29.63,NE,44,4.0,7.0,71,0.00,,,0.00,VWS V14.01,2013-01-26 05:47:00,
2013-01-26 06:50:00,43.5,34.0,29.63,NE,35,6.0,7.0,69,0.00,,,0.00,VWS V14.01,2013-01-26 05:50:00,
2013-01-26 06:52:00,43.4,34.3,29.63,NE,38,4.0,7.0,70,0.00,,,0.00,VWS V14.01,2013-01-26 05:52:00,
2013-01-26 06:57:00,43.9,34.4,29.63,NE,53,7.0,8.0,69,0.00,,,0.00,VWS V14.01,2013-01-26 05:57:00,
2013-01-26 07:00:00,45.0,32.8,29.63,ENE,59,8.0,13.0,62,0.00,,,0.00,VWS V14.01,2013-01-26 06:00:00,
2013-01-26 07:02:00,44.9,33.1,29.63,NNE,31,8.0,10.0,63,0.00,,,0.00,VWS V14.01,2013-01-26 06:02:00,
2013-01-26 07:07:00,44.9,32.7,29.62,NE,53,5.0,8.0,62,0.00,,,0.00,VWS V14.01,2013-01-26 06:07:00,
2013-01-26 07:10:00,44.8,32.2,29.63,NE,45,3.0,11.0,61,0.00,,,0.00,VWS V14.01,2013-01-26 06:10:00,
2013-01-26 07:13:00,44.9,32.3,29.62,ENE,67,7.0,11.0,61,0.00,,,0.00,VWS V14.01,2013-01-26 06:13:00,
2013-01-26 07:18:00,44.5,32.3,29.63,NE,44,5.0,7.0,62,0.00,,,0.00,VWS V14.01,2013-01-26 06:18:00,
2013-01-26 07:20:00,44.2,32.4,29.63,NE,40,5.0,9.0,63,0.00,,,0.00,VWS V14.01,2013-01-26 06:20:00,
2013-01-26 07:23:00,44.2,32.4,29.63,NE,46,5.0,9.0,63,0.00,,,0.00,VWS V14.01,2013-01-26 06:23:00,
2013-01-26 07:28:00,44.4,32.2,29.63,NE,52,6.0,13.0,62,0.00,,,0.00,VWS V14.01,2013-01-26 06:28:00,
2013-01-26 07:30:00,44.2,32.0,29.63,ENE,74,5.0,13.0,62,0.00,,,0.00,VWS V14.01,2013-01-26 06:30:00,
2013-01-26 07:33:00,44.3,32.1,29.63,ENE,74,4.0,13.0,62,0.00,,,0.00,VWS V14.01,2013-01-26 06:33:00,
2013-01-26 07:38:00,44.2,32.4,29.63,ENE,73,3.0,5.0,63,0.00,,,0.00,VWS V14.01,2013-01-26 06:38:00,
2013-01-26 07:40:00,44.2,32.4,29.63,ENE,73,3.0,5.0,63,0.00,,,0.00,VWS V14.01,2013-01-26 06:40:00,
2013-01-26 07:43:00,44.3,32.5,29.63,ENE,73,0.0,5.0,63,0.00,,,0.00,VWS V14.01,2013-01-26 06:43:00,
2013-01-26 07:48:00,43.5,32.2,29.63,NNE,24,4.0,6.0,64,0.00,,,0.00,VWS V14.01,2013-01-26 06:48:00,
2013-01-26 07:50:00,43.1,32.5,29.63,NE,37,5.0,6.0,66,0.00,,,0.00,VWS V14.01,2013-01-26 06:50:00,
2013-01-26 07:53:00,43.1,32.5,29.63,NE,36,5.0,6.0,66,0.00,,,0.00,VWS V14.01,2013-01-26 06:53:00,
2013-01-26 07:58:00,43.4,32.4,29.64,NE,44,6.0,6.0,65,0.00,,,0.00,VWS V14.01,2013-01-26 06:58:00,
2013-01-26 08:00:00,44.1,32.7,29.64,NE,48,5.0,7.0,64,0.00,,,0.00,VWS V14.01,2013-01-26 07:00:00,
2013-01-26 08:03:00,43.9,32.5,29.64,NE,48,6.0,7.0,64,0.00,,,0.00,VWS V14.01,2013-01-26 07:03:00,
2013-01-26 08:08:00,45.0,32.4,29.64,ENE,61,5.0,11.0,61,0.00,,,0.00,VWS V14.01,2013-01-26 07:08:00,
2013-01-26 08:10:00,45.5,32.0,29.63,NE,53,6.0,14.0,59,0.00,,,0.00,VWS V14.01,2013-01-26 07:10:00,
2013-01-26 08:13:00,45.5,32.0,29.63,ENE,57,5.0,14.0,59,0.00,,,0.00,VWS V14.01,2013-01-26 07:13:00,
2013-01-26 08:18:00,45.7,31.8,29.63,ENE,63,14.0,16.0,58,0.00,,,0.00,VWS V14.01,2013-01-26 07:18:00,
2013-01-26 08:20:00,45.6,31.7,29.64,East,80,11.0,17.0,58,0.00,,,0.00,VWS V14.01,2013-01-26 07:20:00,
2013-01-26 08:23:00,45.7,31.8,29.64,ENE,78,5.0,17.0,58,0.00,,,0.00,VWS V14.01,2013-01-26 07:23:00,
2013-01-26 08:28:00,45.7,31.8,29.64,NE,54,9.0,11.0,58,0.00,,,0.00,VWS V14.01,2013-01-26 07:28:00,
2013-01-26 08:30:00,45.8,31.5,29.64,ENE,70,5.0,11.0,57,0.00,,,0.00,VWS V14.01,2013-01-26 07:30:00,
2013-01-26 08:33:00,45.8,31.5,29.64,NE,52,9.0,11.0,57,0.00,,,0.00,VWS V14.01,2013-01-26 07:33:00,
2013-01-26 08:38:00,45.7,31.8,29.64,NE,50,5.0,8.0,58,0.00,,,0.00,VWS V14.01,2013-01-26 07:38:00,
2013-01-26 08:40:00,45.9,31.5,29.64,ENE,75,8.0,14.0,57,0.00,,,0.00,VWS V14.01,2013-01-26 07:40:00,
2013-01-26 08:43:00,45.9,31.5,29.64,ENE,63,10.0,14.0,57,0.00,,,0.00,VWS V14.01,2013-01-26 07:43:00,
2013-01-26 08:48:00,46.0,31.6,29.64,NE,51,3.0,8.0,57,0.00,,,0.00,VWS V14.01,2013-01-26 07:48:00,
2013-01-26 08:50:00,45.9,32.0,29.64,NE,38,5.0,9.0,58,0.00,,,0.00,VWS V14.01,2013-01-26 07:50:00,
2013-01-26 08:53:00,45.9,32.0,29.64,NE,39,4.0,9.0,58,0.00,,,0.00,VWS V14.01,2013-01-26 07:53:00,
2013-01-26 08:58:00,45.9,32.0,29.64,NNE,26,6.0,10.0,58,0.00,,,0.00,VWS V14.01,2013-01-26 07:58:00,
2013-01-26 09:00:00,46.0,32.1,29.65,NE,37,7.0,10.0,58,0.00,,,0.00,VWS V14.01,2013-01-26 08:00:00,
2013-01-26 09:03:00,45.9,32.0,29.65,ENE,57,2.0,10.0,58,0.00,,,0.00,VWS V14.01,2013-01-26 08:03:00,
2013-01-26 09:08:00,45.8,32.3,29.65,NE,53,5.0,10.0,59,0.00,,,0.00,VWS V14.01,2013-01-26 08:08:00,
2013-01-26 09:10:00,45.6,32.5,29.65,NNE,28,6.0,10.0,60,0.00,,,0.00,VWS V14.01,2013-01-26 08:10:00,
2013-01-26 09:13:00,45.6,32.5,29.65,NNE,30,5.0,10.0,60,0.00,,,0.00,VWS V14.01,2013-01-26 08:13:00,
2013-01-26 09:18:00,45.5,32.4,29.65,North,11,9.0,9.0,60,0.00,,,0.00,VWS V14.01,2013-01-26 08:18:00,
2013-01-26 09:20:00,45.4,32.8,29.66,NNE,24,4.0,9.0,61,0.00,,,0.00,VWS V14.01,2013-01-26 08:20:00,
2013-01-26 09:23:00,45.5,32.8,29.65,NNE,17,8.0,9.0,61,0.00,,,0.00,VWS V14.01,2013-01-26 08:23:00,
2013-01-26 09:28:00,45.4,32.8,29.66,NNE,14,7.0,7.0,61,0.00,,,0.00,VWS V14.01,2013-01-26 08:28:00,
2013-01-26 09:30:00,45.5,32.8,29.66,NE,44,3.0,9.0,61,0.00,,,0.00,VWS V14.01,2013-01-26 08:30:00,
2013-01-26 09:33:00,45.5,32.8,29.66,NNE,27,4.0,9.0,61,0.00,,,0.00,VWS V14.01,2013-01-26 08:33:00,
2013-01-26 09:38:00,45.6,32.9,29.66,NNE,24,4.0,7.0,61,0.00,,,0.00,VWS V14.01,2013-01-26 08:38:00,
2013-01-26 09:40:00,45.7,33.4,29.66,NNE,25,2.0,7.0,62,0.00,,,0.00,VWS V14.01,2013-01-26 08:40:00,
2013-01-26 09:43:00,45.7,33.4,29.66,NNE,25,3.0,7.0,62,0.00,,,0.00,VWS V14.01,2013-01-26 08:43:00,
2013-01-26 09:49:00,46.0,33.7,29.66,NNE,24,3.0,5.0,62,0.00,,,0.00,VWS V14.01,2013-01-26 08:49:00,
2013-01-26 09:50:00,46.2,33.5,29.67,NNE,20,3.0,7.0,61,0.00,,,0.00,VWS V14.01,2013-01-26 08:50:00,
2013-01-26 09:54:00,46.1,33.4,29.66,NNE,20,5.0,7.0,61,0.00,,,0.00,VWS V14.01,2013-01-26 08:54:00,
2013-01-26 09:58:00,46.2,33.5,29.67,NNE,17,4.0,7.0,61,0.00,,,0.00,VWS V14.01,2013-01-26 08:58:00,
2013-01-26 10:00:00,46.6,33.5,29.67,NNE,31,6.0,8.0,60,0.00,,,0.00,VWS V14.01,2013-01-26 09:00:00,
2013-01-26 10:03:00,46.5,33.4,29.67,NNE,18,4.0,7.0,60,0.00,,,0.00,VWS V14.01,2013-01-26 09:03:00,
2013-01-26 10:08:00,47.1,33.1,29.67,NNE,30,1.0,6.0,58,0.00,,,0.00,VWS V14.01,2013-01-26 09:08:00,
2013-01-26 10:10:00,47.7,33.2,29.67,NE,34,8.0,8.0,57,0.00,,,0.00,VWS V14.01,2013-01-26 09:10:00,
2013-01-26 10:13:00,47.6,33.1,29.67,NE,35,5.0,6.0,57,0.00,,,0.00,VWS V14.01,2013-01-26 09:13:00,
2013-01-26 10:18:00,47.5,32.6,29.67,NE,46,3.0,10.0,56,0.00,,,0.00,VWS V14.01,2013-01-26 09:18:00,
2013-01-26 10:20:00,47.5,33.0,29.67,ENE,69,7.0,10.0,57,0.00,,,0.00,VWS V14.01,2013-01-26 09:20:00,
2013-01-26 10:23:00,47.5,33.0,29.67,ENE,57,5.0,10.0,57,0.00,,,0.00,VWS V14.01,2013-01-26 09:23:00,
2013-01-26 10:28:00,47.5,33.0,29.67,NE,36,4.0,11.0,57,0.00,,,0.00,VWS V14.01,2013-01-26 09:28:00,
2013-01-26 10:30:00,47.6,33.1,29.67,East,93,9.0,11.0,57,0.00,,,0.00,VWS V14.01,2013-01-26 09:30:00,
2013-01-26 10:33:00,47.5,33.0,29.67,ENE,59,5.0,11.0,57,0.00,,,0.00,VWS V14.01,2013-01-26 09:33:00,
2013-01-26 10:39:00,47.6,33.1,29.67,ENE,73,2.0,9.0,57,0.00,,,0.00,VWS V14.01,2013-01-26 09:39:00,
2013-01-26 10:40:00,47.6,32.7,29.67,ENE,71,4.0,10.0,56,0.00,,,0.00,VWS V14.01,2013-01-26 09:40:00,
2013-01-26 10:44:00,47.6,33.1,29.67,ENE,65,9.0,10.0,57,0.00,,,0.00,VWS V14.01,2013-01-26 09:44:00,
2013-01-26 10:49:00,47.6,32.7,29.67,ENE,65,4.0,9.0,56,0.00,,,0.00,VWS V14.01,2013-01-26 09:49:00,
2013-01-26 10:50:00,47.7,33.2,29.67,East,84,7.0,10.0,57,0.00,,,0.00,VWS V14.01,2013-01-26 09:50:00,
2013-01-26 10:54:00,47.7,32.8,29.67,ENE,64,8.0,10.0,56,0.00,,,0.00,VWS V14.01,2013-01-26 09:54:00,
2013-01-26 10:59:00,47.7,32.8,29.68,ENE,63,4.0,10.0,56,0.00,,,0.00,VWS V14.01,2013-01-26 09:59:00,
2013-01-26 11:00:00,47.7,32.8,29.68,NE,40,6.0,10.0,56,0.00,,,0.00,VWS V14.01,2013-01-26 10:00:00,
2013-01-26 11:04:00,47.8,32.9,29.68,NE,51,6.0,10.0,56,0.00,,,0.00,VWS V14.01,2013-01-26 10:04:00,
2013-01-26 11:09:00,47.9,33.0,29.68,ENE,69,7.0,8.0,56,0.00,,,0.00,VWS V14.01,2013-01-26 10:09:00,
2013-01-26 11:10:00,48.0,33.1,29.68,NE,53,4.0,8.0,56,0.00,,,0.00,VWS V14.01,2013-01-26 10:10:00,
2013-01-26 11:14:00,48.0,33.1,29.68,NE,55,2.0,8.0,56,0.00,,,0.00,VWS V14.01,2013-01-26 10:14:00,
2013-01-26 11:19:00,48.1,33.6,29.67,NE,44,2.0,6.0,57,0.00,,,0.00,VWS V14.01,2013-01-26 10:19:00,
2013-01-26 11:20:00,48.1,33.2,29.68,NE,55,3.0,8.0,56,0.00,,,0.00,VWS V14.01,2013-01-26 10:20:00,
2013-01-26 11:24:00,48.2,33.3,29.68,NE,55,5.0,8.0,56,0.00,,,0.00,VWS V14.01,2013-01-26 10:24:00,
2013-01-26 11:29:00,48.2,33.7,29.68,NE,55,3.0,4.0,57,0.00,,,0.00,VWS V14.01,2013-01-26 10:29:00,
2013-01-26 11:30:00,48.4,33.9,29.68,NE,36,0.0,5.0,57,0.00,,,0.00,VWS V14.01,2013-01-26 10:30:00,
2013-01-26 11:34:00,48.4,33.9,29.68,NE,36,1.0,5.0,57,0.00,,,0.00,VWS V14.01,2013-01-26 10:34:00,
2013-01-26 11:39:00,48.4,33.4,29.68,NNE,30,2.0,5.0,56,0.00,,,0.00,VWS V14.01,2013-01-26 10:39:00,
2013-01-26 11:40:00,48.5,33.5,29.68,NNE,32,2.0,5.0,56,0.00,,,0.00,VWS V14.01,2013-01-26 10:40:00,
2013-01-26 11:44:00,48.5,33.5,29.68,NNE,32,1.0,5.0,56,0.00,,,0.00,VWS V14.01,2013-01-26 10:44:00,
2013-01-26 11:49:00,48.6,33.2,29.68,NE,49,3.0,3.0,55,0.00,,,0.00,VWS V14.01,2013-01-26 10:49:00,
2013-01-26 11:50:00,48.6,33.2,29.68,NE,49,0.0,3.0,55,0.00,,,0.00,VWS V14.01,2013-01-26 10:50:00,
2013-01-26 11:54:00,48.6,33.2,29.68,NE,49,0.0,3.0,55,0.00,,,0.00,VWS V14.01,2013-01-26 10:54:00,
2013-01-26 11:59:00,48.7,33.3,29.68,NE,49,0.0,2.0,55,0.00,,,0.00,VWS V14.01,2013-01-26 10:59:00,
2013-01-26 12:00:00,48.9,33.5,29.68,NE,49,0.0,2.0,55,0.00,,,0.00,VWS V14.01,2013-01-26 11:00:00,
2013-01-26 12:04:00,48.9,33.5,29.68,NE,49,0.0,2.0,55,0.00,,,0.00,VWS V14.01,2013-01-26 11:04:00,
2013-01-26 12:09:00,49.1,34.1,29.68,NE,49,0.0,0.0,56,0.00,,,0.00,VWS V14.01,2013-01-26 11:09:00,
2013-01-26 12:10:00,49.1,34.1,29.68,NE,49,0.0,3.0,56,0.00,,,0.00,VWS V14.01,2013-01-26 11:10:00,
2013-01-26 12:14:00,49.1,34.1,29.68,NE,49,0.0,3.0,56,0.00,,,0.00,VWS V14.01,2013-01-26 11:14:00,
2013-01-26 12:19:00,48.9,33.5,29.68,NE,44,4.0,5.0,55,0.00,,,0.00,VWS V14.01,2013-01-26 11:19:00,
2013-01-26 12:20:00,48.6,33.2,29.68,NE,36,2.0,6.0,55,0.00,,,0.00,VWS V14.01,2013-01-26 11:20:00,
2013-01-26 12:24:00,48.7,33.3,29.68,NE,36,1.0,6.0,55,0.00,,,0.00,VWS V14.01,2013-01-26 11:24:00,
2013-01-26 12:26:00,48.7,33.7,29.68,NE,37,1.0,4.0,56,0.00,,,0.00,VWS V14.01,2013-01-26 11:26:00,
2013-01-26 12:29:00,48.6,33.6,29.68,NE,37,2.0,4.0,56,0.00,,,0.00,VWS V14.01,2013-01-26 11:29:00,
2013-01-26 12:30:00,48.7,34.6,29.67,NNE,32,7.0,8.0,58,0.00,,,0.00,VWS V14.01,2013-01-26 11:30:00,
2013-01-26 12:36:00,48.8,34.3,29.68,NE,37,3.0,4.0,57,0.00,,,0.00,VWS V14.01,2013-01-26 11:36:00,
2013-01-26 12:40:00,48.7,34.2,29.68,NE,41,4.0,6.0,57,0.00,,,0.00,VWS V14.01,2013-01-26 11:40:00,
2013-01-26 12:41:00,48.6,33.6,29.68,NE,41,3.0,6.0,56,0.00,,,0.00,VWS V14.01,2013-01-26 11:41:00,
2013-01-26 12:46:00,48.7,33.7,29.68,NE,46,4.0,5.0,56,0.00,,,0.00,VWS V14.01,2013-01-26 11:46:00,
2013-01-26 12:50:00,48.5,34.0,29.68,NNE,22,4.0,7.0,57,0.00,,,0.00,VWS V14.01,2013-01-26 11:50:00,
2013-01-26 12:51:00,48.5,33.1,29.68,NE,39,4.0,7.0,55,0.00,,,0.00,VWS V14.01,2013-01-26 11:51:00,
2013-01-26 12:56:00,48.5,34.4,29.68,NNE,33,3.0,5.0,58,0.00,,,0.00,VWS V14.01,2013-01-26 11:56:00,
2013-01-26 13:00:00,48.5,34.0,29.67,NE,46,3.0,8.0,57,0.00,,,0.00,VWS V14.01,2013-01-26 12:00:00,
2013-01-26 13:01:00,48.5,34.0,29.68,NE,43,7.0,8.0,57,0.00,,,0.00,VWS V14.01,2013-01-26 12:01:00,
2013-01-26 13:06:00,48.5,34.0,29.67,NE,44,7.0,7.0,57,0.00,,,0.00,VWS V14.01,2013-01-26 12:06:00,
2013-01-26 13:10:00,48.6,34.5,29.67,NE,46,6.0,8.0,58,0.00,,,0.00,VWS V14.01,2013-01-26 12:10:00,
2013-01-26 13:11:00,48.6,34.1,29.68,NNE,28,6.0,8.0,57,0.00,,,0.00,VWS V14.01,2013-01-26 12:11:00,
2013-01-26 13:16:00,48.6,34.5,29.67,NE,36,4.0,8.0,58,0.00,,,0.00,VWS V14.01,2013-01-26 12:16:00,
2013-01-26 13:20:00,48.8,34.7,29.67,NNE,30,3.0,8.0,58,0.00,,,0.00,VWS V14.01,2013-01-26 12:20:00,
2013-01-26 13:21:00,48.7,34.2,29.67,NE,36,3.0,8.0,57,0.00,,,0.00,VWS V14.01,2013-01-26 12:21:00,
2013-01-26 13:26:00,48.9,34.8,29.67,NNE,30,2.0,6.0,58,0.00,,,0.00,VWS V14.01,2013-01-26 12:26:00,
2013-01-26 13:30:00,48.7,34.6,29.67,NNE,32,7.0,8.0,58,0.00,,,0.00,VWS V14.01,2013-01-26 12:30:00,
2013-01-26 13:31:00,48.7,34.6,29.67,NNE,13,8.0,8.0,58,0.00,,,0.00,VWS V14.01,2013-01-26 12:31:00,
2013-01-26 13:36:00,48.7,34.6,29.67,NNE,28,3.0,8.0,58,0.00,,,0.00,VWS V14.01,2013-01-26 12:36:00,
2013-01-26 13:40:00,48.9,35.2,29.67,NNE,19,4.0,8.0,59,0.00,,,0.00,VWS V14.01,2013-01-26 12:40:00,
2013-01-26 13:41:00,48.7,34.6,29.67,North,5,4.0,8.0,58,0.00,,,0.00,VWS V14.01,2013-01-26 12:41:00,
2013-01-26 13:46:00,48.9,35.2,29.67,NNE,21,3.0,5.0,59,0.00,,,0.00,VWS V14.01,2013-01-26 12:46:00,
2013-01-26 13:50:00,49.0,35.3,29.67,NNE,33,8.0,8.0,59,0.00,,,0.00,VWS V14.01,2013-01-26 12:50:00,
2013-01-26 13:51:00,48.9,35.2,29.67,NNE,24,4.0,7.0,59,0.00,,,0.00,VWS V14.01,2013-01-26 12:51:00,
2013-01-26 13:56:00,48.9,34.8,29.67,NE,35,3.0,8.0,58,0.00,,,0.00,VWS V14.01,2013-01-26 12:56:00,
2013-01-26 14:00:00,49.1,35.0,29.67,NE,34,3.0,8.0,58,0.00,,,0.00,VWS V14.01,2013-01-26 13:00:00,
2013-01-26 14:01:00,49.1,35.0,29.67,NE,36,4.0,8.0,58,0.00,,,0.00,VWS V14.01,2013-01-26 13:01:00,
2013-01-26 14:06:00,49.1,34.5,29.67,NE,41,6.0,10.0,57,0.00,,,0.00,VWS V14.01,2013-01-26 13:06:00,
2013-01-26 14:10:00,49.2,34.6,29.67,NE,53,5.0,10.0,57,0.00,,,0.00,VWS V14.01,2013-01-26 13:10:00,
2013-01-26 14:11:00,49.1,34.5,29.67,NE,44,5.0,10.0,57,0.00,,,0.00,VWS V14.01,2013-01-26 13:11:00,
2013-01-26 14:16:00,49.2,34.6,29.67,NE,38,4.0,6.0,57,0.00,,,0.00,VWS V14.01,2013-01-26 13:16:00,
2013-01-26 14:20:00,49.3,34.3,29.67,NE,43,7.0,11.0,56,0.00,,,0.00,VWS V14.01,2013-01-26 13:20:00,
2013-01-26 14:21:00,49.2,34.2,29.67,NE,54,8.0,11.0,56,0.00,,,0.00,VWS V14.01,2013-01-26 13:21:00,
2013-01-26 14:26:00,49.3,34.3,29.67,NE,46,7.0,8.0,56,0.00,,,0.00,VWS V14.01,2013-01-26 13:26:00,
2013-01-26 14:30:00,49.3,34.3,29.68,NE,49,2.0,8.0,56,0.00,,,0.00,VWS V14.01,2013-01-26 13:30:00,
2013-01-26 14:31:00,49.3,34.3,29.68,NE,54,7.0,8.0,56,0.00,,,0.00,VWS V14.01,2013-01-26 13:31:00,
2013-01-26 14:37:00,49.3,34.7,29.68,NE,49,1.0,4.0,57,0.00,,,0.00,VWS V14.01,2013-01-26 13:37:00,
2013-01-26 14:40:00,49.3,34.3,29.68,ENE,71,3.0,9.0,56,0.00,,,0.00,VWS V14.01,2013-01-26 13:40:00,
2013-01-26 14:42:00,49.3,34.3,29.68,NE,54,2.0,8.0,56,0.00,,,0.00,VWS V14.01,2013-01-26 13:42:00,
2013-01-26 14:47:00,49.3,34.3,29.68,NE,46,4.0,8.0,56,0.00,,,0.00,VWS V14.01,2013-01-26 13:47:00,
2013-01-26 14:50:00,49.3,34.7,29.68,NNE,31,6.0,8.0,57,0.00,,,0.00,VWS V14.01,2013-01-26 13:50:00,
2013-01-26 14:52:00,49.3,34.7,29.68,NNE,30,4.0,8.0,57,0.00,,,0.00,VWS V14.01,2013-01-26 13:52:00,
2013-01-26 14:57:00,49.2,34.2,29.68,NE,43,8.0,8.0,56,0.00,,,0.00,VWS V14.01,2013-01-26 13:57:00,
2013-01-26 15:00:00,49.3,34.7,29.68,NE,36,3.0,9.0,57,0.00,,,0.00,VWS V14.01,2013-01-26 14:00:00,
2013-01-26 15:02:00,49.2,34.2,29.68,NE,34,5.0,9.0,56,0.00,,,0.00,VWS V14.01,2013-01-26 14:02:00,
2013-01-26 15:07:00,49.3,34.7,29.68,NE,42,6.0,6.0,57,0.00,,,0.00,VWS V14.01,2013-01-26 14:07:00,
2013-01-26 15:10:00,49.3,34.7,29.68,NNE,28,6.0,8.0,57,0.00,,,0.00,VWS V14.01,2013-01-26 14:10:00,
2013-01-26 15:12:00,49.2,34.6,29.68,NE,45,6.0,8.0,57,0.00,,,0.00,VWS V14.01,2013-01-26 14:12:00,
2013-01-26 15:17:00,49.2,34.6,29.68,NE,40,7.0,7.0,57,0.00,,,0.00,VWS V14.01,2013-01-26 14:17:00,
2013-01-26 15:20:00,49.3,35.2,29.68,NE,44,2.0,7.0,58,0.00,,,0.00,VWS V14.01,2013-01-26 14:20:00,
2013-01-26 15:22:00,49.3,34.7,29.68,NE,48,3.0,7.0,57,0.00,,,0.00,VWS V14.01,2013-01-26 14:22:00,
2013-01-26 15:27:00,49.2,35.1,29.68,NNE,26,6.0,7.0,58,0.00,,,0.00,VWS V14.01,2013-01-26 14:27:00,
2013-01-26 15:30:00,49.2,35.1,29.68,North,11,6.0,7.0,58,0.00,,,0.00,VWS V14.01,2013-01-26 14:30:00,
2013-01-26 15:32:00,49.2,35.1,29.68,North,9,4.0,7.0,58,0.00,,,0.00,VWS V14.01,2013-01-26 14:32:00,
2013-01-26 15:37:00,49.2,35.1,29.68,NNE,12,6.0,6.0,58,0.00,,,0.00,VWS V14.01,2013-01-26 14:37:00,
2013-01-26 15:40:00,49.2,35.1,29.68,NNE,28,2.0,6.0,58,0.00,,,0.00,VWS V14.01,2013-01-26 14:40:00,
2013-01-26 15:42:00,49.2,36.3,29.68,NNE,24,5.0,6.0,61,0.00,,,0.00,VWS V14.01,2013-01-26 14:42:00,
2013-01-26 15:47:00,49.1,35.0,29.68,NNE,27,2.0,6.0,58,0.00,,,0.00,VWS V14.01,2013-01-26 14:47:00,
2013-01-26 15:50:00,49.1,35.0,29.69,NNE,24,2.0,9.0,58,0.00,,,0.00,VWS V14.01,2013-01-26 14:50:00,
2013-01-26 15:52:00,49.1,35.0,29.68,NNE,31,4.0,9.0,58,0.00,,,0.00,VWS V14.01,2013-01-26 14:52:00,
2013-01-26 15:57:00,49.1,35.4,29.68,NE,34,5.0,6.0,59,0.00,,,0.00,VWS V14.01,2013-01-26 14:57:00,
2013-01-26 16:00:00,49.1,35.0,29.68,NE,40,1.0,7.0,58,0.00,,,0.00,VWS V14.01,2013-01-26 15:00:00,
2013-01-26 16:02:00,49.1,35.0,29.68,NE,40,3.0,7.0,58,0.00,,,0.00,VWS V14.01,2013-01-26 15:02:00,
2013-01-26 16:07:00,49.1,35.0,29.69,NE,52,4.0,4.0,58,0.00,,,0.00,VWS V14.01,2013-01-26 15:07:00,
2013-01-26 16:10:00,49.1,35.0,29.69,NE,52,3.0,4.0,58,0.00,,,0.00,VWS V14.01,2013-01-26 15:10:00,
2013-01-26 16:12:00,49.1,35.0,29.69,NE,52,3.0,4.0,58,0.00,,,0.00,VWS V14.01,2013-01-26 15:12:00,
2013-01-26 16:17:00,49.1,35.0,29.69,NE,53,4.0,4.0,58,0.00,,,0.00,VWS V14.01,2013-01-26 15:17:00,
2013-01-26 16:20:00,49.0,35.3,29.69,NE,53,2.0,5.0,59,0.00,,,0.00,VWS V14.01,2013-01-26 15:20:00,
2013-01-26 16:22:00,49.1,35.0,29.69,NE,53,3.0,5.0,58,0.00,,,0.00,VWS V14.01,2013-01-26 15:22:00,
2013-01-26 16:27:00,48.9,35.2,29.69,NE,53,3.0,5.0,59,0.00,,,0.00,VWS V14.01,2013-01-26 15:27:00,
2013-01-26 16:30:00,48.9,35.2,29.69,NE,53,2.0,5.0,59,0.00,,,0.00,VWS V14.01,2013-01-26 15:30:00,
2013-01-26 16:32:00,48.9,35.2,29.69,NE,53,3.0,5.0,59,0.00,,,0.00,VWS V14.01,2013-01-26 15:32:00,
2013-01-26 16:37:00,48.9,35.2,29.69,NE,53,2.0,3.0,59,0.00,,,0.00,VWS V14.01,2013-01-26 15:37:00,
2013-01-26 16:40:00,48.8,35.5,29.69,NE,53,4.0,5.0,60,0.00,,,0.00,VWS V14.01,2013-01-26 15:40:00,
2013-01-26 16:42:00,48.8,35.5,29.69,NE,53,3.0,5.0,60,0.00,,,0.00,VWS V14.01,2013-01-26 15:42:00,
2013-01-26 16:47:00,48.7,35.5,29.69,East,80,7.0,9.0,60,0.00,,,0.00,VWS V14.01,2013-01-26 15:47:00,
2013-01-26 16:50:00,48.6,34.5,29.69,East,94,7.0,9.0,58,0.00,,,0.00,VWS V14.01,2013-01-26 15:50:00,
2013-01-26 16:52:00,48.7,35.0,29.69,East,97,7.0,9.0,59,0.00,,,0.00,VWS V14.01,2013-01-26 15:52:00,
2013-01-26 16:57:00,48.6,34.5,29.69,East,92,3.0,8.0,58,0.00,,,0.00,VWS V14.01,2013-01-26 15:57:00,
2013-01-26 17:00:00,48.4,34.3,29.70,East,82,3.0,8.0,58,0.00,,,0.00,VWS V14.01,2013-01-26 16:00:00,
2013-01-26 17:02:00,48.5,34.4,29.70,East,80,6.0,8.0,58,0.00,,,0.00,VWS V14.01,2013-01-26 16:02:00,
2013-01-26 17:07:00,48.3,34.7,29.70,East,86,6.0,6.0,59,0.00,,,0.00,VWS V14.01,2013-01-26 16:07:00,
2013-01-26 17:10:00,48.2,34.1,29.70,ESE,107,5.0,10.0,58,0.00,,,0.00,VWS V14.01,2013-01-26 16:10:00,
2013-01-26 17:12:00,48.2,34.6,29.70,East,92,6.0,9.0,59,0.00,,,0.00,VWS V14.01,2013-01-26 16:12:00,
2013-01-26 17:17:00,48.2,34.1,29.70,East,99,6.0,10.0,58,0.00,,,0.00,VWS V14.01,2013-01-26 16:17:00,
2013-01-26 17:20:00,48.1,34.0,29.71,East,96,7.0,10.0,58,0.00,,,0.00,VWS V14.01,2013-01-26 16:20:00,
2013-01-26 17:22:00,48.1,34.0,29.70,ENE,78,4.0,10.0,58,0.00,,,0.00,VWS V14.01,2013-01-26 16:22:00,
2013-01-26 17:27:00,48.1,34.0,29.71,East,94,5.0,8.0,58,0.00,,,0.00,VWS V14.01,2013-01-26 16:27:00,
2013-01-26 17:30:00,48.0,33.9,29.71,East,81,5.0,9.0,58,0.00,,,0.00,VWS V14.01,2013-01-26 16:30:00,
2013-01-26 17:32:00,48.0,33.5,29.71,East,99,6.0,9.0,57,0.00,,,0.00,VWS V14.01,2013-01-26 16:32:00,
2013-01-26 17:37:00,47.9,33.8,29.71,East,91,6.0,7.0,58,0.00,,,0.00,VWS V14.01,2013-01-26 16:37:00,
2013-01-26 17:40:00,47.7,33.7,29.72,East,88,8.0,10.0,58,0.00,,,0.00,VWS V14.01,2013-01-26 16:40:00,
2013-01-26 17:42:00,47.7,33.7,29.71,East,99,6.0,9.0,58,0.00,,,0.00,VWS V14.01,2013-01-26 16:42:00,
2013-01-26 17:47:00,47.7,33.7,29.72,East,81,5.0,8.0,58,0.00,,,0.00,VWS V14.01,2013-01-26 16:47:00,
2013-01-26 17:50:00,47.5,33.5,29.72,East,80,7.0,9.0,58,0.00,,,0.00,VWS V14.01,2013-01-26 16:50:00,
2013-01-26 17:52:00,47.6,33.6,29.72,East,84,8.0,9.0,58,0.00,,,0.00,VWS V14.01,2013-01-26 16:52:00,
2013-01-26 17:57:00,47.5,33.5,29.72,ENE,78,7.0,8.0,58,0.00,,,0.00,VWS V14.01,2013-01-26 16:57:00,
2013-01-26 18:00:00,47.5,33.5,29.73,East,88,7.0,9.0,58,0.00,,,0.00,VWS V14.01,2013-01-26 17:00:00,
2013-01-26 18:02:00,47.5,33.5,29.73,East,93,6.0,9.0,58,0.00,,,0.00,VWS V14.01,2013-01-26 17:02:00,
2013-01-26 18:07:00,47.5,33.5,29.73,ENE,78,8.0,9.0,58,0.00,,,0.00,VWS V14.01,2013-01-26 17:07:00,
2013-01-26 18:10:00,47.4,33.4,29.73,East,81,10.0,10.0,58,0.00,,,0.00,VWS V14.01,2013-01-26 17:10:00,
2013-01-26 18:12:00,47.4,33.4,29.73,East,80,9.0,10.0,58,0.00,,,0.00,VWS V14.01,2013-01-26 17:12:00,
2013-01-26 18:17:00,47.4,33.4,29.73,ENE,69,9.0,10.0,58,0.00,,,0.00,VWS V14.01,2013-01-26 17:17:00,
2013-01-26 18:20:00,47.1,33.5,29.74,ENE,78,8.0,11.0,59,0.00,,,0.00,VWS V14.01,2013-01-26 17:20:00,
2013-01-26 18:22:00,47.2,33.6,29.74,East,80,9.0,11.0,59,0.00,,,0.00,VWS V14.01,2013-01-26 17:22:00,
2013-01-26 18:27:00,47.1,33.1,29.74,ENE,75,7.0,11.0,58,0.00,,,0.00,VWS V14.01,2013-01-26 17:27:00,
2013-01-26 18:30:00,47.0,32.6,29.74,ENE,78,7.0,12.0,57,0.00,,,0.00,VWS V14.01,2013-01-26 17:30:00,
2013-01-26 18:32:00,47.0,33.0,29.74,East,84,8.0,12.0,58,0.00,,,0.00,VWS V14.01,2013-01-26 17:32:00,
2013-01-26 18:37:00,46.9,32.5,29.74,East,84,10.0,13.0,57,0.00,,,0.00,VWS V14.01,2013-01-26 17:37:00,
2013-01-26 18:40:00,46.8,32.8,29.74,ENE,63,5.0,13.0,58,0.00,,,0.00,VWS V14.01,2013-01-26 17:40:00,
2013-01-26 18:42:00,46.8,32.8,29.74,East,87,6.0,13.0,58,0.00,,,0.00,VWS V14.01,2013-01-26 17:42:00,
2013-01-26 18:47:00,46.7,32.7,29.75,ENE,68,7.0,8.0,58,0.00,,,0.00,VWS V14.01,2013-01-26 17:47:00,
2013-01-26 18:50:00,46.5,33.0,29.75,ENE,59,5.0,9.0,59,0.00,,,0.00,VWS V14.01,2013-01-26 17:50:00,
2013-01-26 18:52:00,46.6,33.0,29.75,ENE,68,5.0,9.0,59,0.00,,,0.00,VWS V14.01,2013-01-26 17:52:00,
2013-01-26 18:57:00,46.5,33.0,29.75,ENE,66,5.0,7.0,59,0.00,,,0.00,VWS V14.01,2013-01-26 17:57:00,
2013-01-26 19:00:00,46.4,32.9,29.75,ENE,61,4.0,9.0,59,0.00,,,0.00,VWS V14.01,2013-01-26 18:00:00,
2013-01-26 19:02:00,46.4,32.9,29.75,ENE,66,5.0,9.0,59,0.00,,,0.00,VWS V14.01,2013-01-26 18:02:00,
2013-01-26 19:10:00,46.2,32.7,29.75,ENE,65,5.0,9.0,59,0.00,,,0.00,VWS V14.01,2013-01-26 18:10:00,
2013-01-26 19:12:00,46.3,32.8,29.75,ENE,59,5.0,9.0,59,0.00,,,0.00,VWS V14.01,2013-01-26 18:12:00,
2013-01-26 19:17:00,46.2,32.7,29.75,ENE,75,5.0,10.0,59,0.00,,,0.00,VWS V14.01,2013-01-26 18:17:00,
2013-01-26 19:20:00,46.2,32.2,29.76,NE,49,7.0,12.0,58,0.00,,,0.00,VWS V14.01,2013-01-26 18:20:00,
2013-01-26 19:22:00,46.2,32.7,29.76,ENE,63,10.0,12.0,59,0.00,,,0.00,VWS V14.01,2013-01-26 18:22:00,
2013-01-26 19:27:00,46.4,32.4,29.76,ENE,64,5.0,11.0,58,0.00,,,0.00,VWS V14.01,2013-01-26 18:27:00,
2013-01-26 19:30:00,46.3,32.3,29.76,East,81,8.0,11.0,58,0.00,,,0.00,VWS V14.01,2013-01-26 18:30:00,
2013-01-26 19:32:00,46.2,32.2,29.76,East,90,11.0,11.0,58,0.00,,,0.00,VWS V14.01,2013-01-26 18:32:00,
2013-01-26 19:37:00,46.3,31.9,29.77,ENE,74,10.0,10.0,57,0.00,,,0.00,VWS V14.01,2013-01-26 18:37:00,
2013-01-26 19:40:00,46.3,31.9,29.77,ENE,63,10.0,11.0,57,0.00,,,0.00,VWS V14.01,2013-01-26 18:40:00,
2013-01-26 19:42:00,46.4,32.0,29.77,ENE,63,8.0,11.0,57,0.00,,,0.00,VWS V14.01,2013-01-26 18:42:00,
2013-01-26 19:47:00,46.3,31.9,29.77,ENE,67,9.0,11.0,57,0.00,,,0.00,VWS V14.01,2013-01-26 18:47:00,
2013-01-26 19:50:00,46.4,31.6,29.77,ENE,61,10.0,14.0,56,0.00,,,0.00,VWS V14.01,2013-01-26 18:50:00,
2013-01-26 19:52:00,46.4,31.6,29.77,ENE,63,11.0,14.0,56,0.00,,,0.00,VWS V14.01,2013-01-26 18:52:00,
2013-01-26 19:57:00,46.5,31.2,29.78,ENE,66,8.0,14.0,55,0.00,,,0.00,VWS V14.01,2013-01-26 18:57:00,
2013-01-26 20:00:00,46.3,31.5,29.78,ENE,67,10.0,14.0,56,0.00,,,0.00,VWS V14.01,2013-01-26 19:00:00,
2013-01-26 20:02:00,46.3,31.5,29.78,ENE,69,5.0,14.0,56,0.00,,,0.00,VWS V14.01,2013-01-26 19:02:00,
2013-01-26 20:07:00,46.2,31.4,29.78,ENE,57,13.0,13.0,56,0.00,,,0.00,VWS V14.01,2013-01-26 19:07:00,
2013-01-26 20:10:00,46.0,31.6,29.78,ENE,73,10.0,13.0,57,0.00,,,0.00,VWS V14.01,2013-01-26 19:10:00,
2013-01-26 20:12:00,46.0,31.2,29.78,East,80,8.0,13.0,56,0.00,,,0.00,VWS V14.01,2013-01-26 19:12:00,
2013-01-26 20:17:00,46.0,31.6,29.78,NE,51,7.0,13.0,57,0.00,,,0.00,VWS V14.01,2013-01-26 19:17:00,
2013-01-26 20:20:00,46.2,30.9,29.78,ENE,78,11.0,15.0,55,0.00,,,0.00,VWS V14.01,2013-01-26 19:20:00,
2013-01-26 20:22:00,46.1,31.3,29.78,East,86,8.0,13.0,56,0.00,,,0.00,VWS V14.01,2013-01-26 19:22:00,
2013-01-26 20:27:00,46.1,30.9,29.78,ENE,73,13.0,13.0,55,0.00,,,0.00,VWS V14.01,2013-01-26 19:27:00,
2013-01-26 20:30:00,45.8,31.0,29.79,East,84,7.0,13.0,56,0.00,,,0.00,VWS V14.01,2013-01-26 19:30:00,
2013-01-26 20:32:00,46.0,31.2,29.79,ESE,102,9.0,13.0,56,0.00,,,0.00,VWS V14.01,2013-01-26 19:32:00,
2013-01-26 20:37:00,45.7,31.4,29.79,East,85,8.0,13.0,57,0.00,,,0.00,VWS V14.01,2013-01-26 19:37:00,
2013-01-26 20:40:00,45.5,31.2,29.79,ENE,73,10.0,13.0,57,0.00,,,0.00,VWS V14.01,2013-01-26 19:40:00,
2013-01-26 20:43:00,45.5,31.2,29.79,East,85,9.0,13.0,57,0.00,,,0.00,VWS V14.01,2013-01-26 19:43:00,
2013-01-26 20:48:00,45.5,31.6,29.79,East,82,6.0,10.0,58,0.00,,,0.00,VWS V14.01,2013-01-26 19:48:00,
2013-01-26 20:50:00,45.6,31.3,29.79,ENE,62,5.0,14.0,57,0.00,,,0.00,VWS V14.01,2013-01-26 19:50:00,
2013-01-26 20:53:00,45.7,31.4,29.79,ENE,78,5.0,14.0,57,0.00,,,0.00,VWS V14.01,2013-01-26 19:53:00,
2013-01-26 20:58:00,45.3,31.4,29.79,NE,56,6.0,9.0,58,0.00,,,0.00,VWS V14.01,2013-01-26 19:58:00,
2013-01-26 21:00:00,45.4,31.1,29.80,NE,45,8.0,10.0,57,0.00,,,0.00,VWS V14.01,2013-01-26 20:00:00,
2013-01-26 21:03:00,45.3,31.0,29.80,ENE,59,7.0,10.0,57,0.00,,,0.00,VWS V14.01,2013-01-26 20:03:00,
2013-01-26 21:08:00,45.7,30.9,29.80,NE,56,6.0,11.0,56,0.00,,,0.00,VWS V14.01,2013-01-26 20:08:00,
2013-01-26 21:10:00,45.8,31.0,29.80,NE,55,5.0,12.0,56,0.00,,,0.00,VWS V14.01,2013-01-26 20:10:00,
2013-01-26 21:13:00,45.8,31.0,29.80,ENE,59,8.0,12.0,56,0.00,,,0.00,VWS V14.01,2013-01-26 20:13:00,
2013-01-26 21:18:00,45.8,31.0,29.80,NE,46,7.0,14.0,56,0.00,,,0.00,VWS V14.01,2013-01-26 20:18:00,
2013-01-26 21:20:00,45.9,30.7,29.80,NE,53,6.0,14.0,55,0.00,,,0.00,VWS V14.01,2013-01-26 20:20:00,
2013-01-26 21:23:00,45.9,30.7,29.80,ENE,69,5.0,14.0,55,0.00,,,0.00,VWS V14.01,2013-01-26 20:23:00,
2013-01-26 21:28:00,46.0,30.8,29.80,ENE,57,7.0,10.0,55,0.00,,,0.00,VWS V14.01,2013-01-26 20:28:00,
2013-01-26 21:30:00,46.0,30.8,29.81,ENE,62,10.0,11.0,55,0.00,,,0.00,VWS V14.01,2013-01-26 20:30:00,
2013-01-26 21:33:00,46.0,30.8,29.80,ENE,62,9.0,11.0,55,0.00,,,0.00,VWS V14.01,2013-01-26 20:33:00,
2013-01-26 21:38:00,46.2,30.5,29.81,ENE,67,12.0,14.0,54,0.00,,,0.00,VWS V14.01,2013-01-26 20:38:00,
2013-01-26 21:40:00,46.2,30.5,29.81,ENE,63,9.0,14.0,54,0.00,,,0.00,VWS V14.01,2013-01-26 20:40:00,
2013-01-26 21:43:00,46.2,30.5,29.81,NE,54,6.0,14.0,54,0.00,,,0.00,VWS V14.01,2013-01-26 20:43:00,
2013-01-26 21:48:00,46.2,30.9,29.81,ENE,73,7.0,13.0,55,0.00,,,0.00,VWS V14.01,2013-01-26 20:48:00,
2013-01-26 21:50:00,46.1,30.9,29.81,NE,55,13.0,13.0,55,0.00,,,0.00,VWS V14.01,2013-01-26 20:50:00,
2013-01-26 21:53:00,46.1,30.9,29.81,ENE,60,8.0,13.0,55,0.00,,,0.00,VWS V14.01,2013-01-26 20:53:00,
2013-01-26 21:58:00,46.1,30.9,29.81,NNE,32,8.0,13.0,55,0.00,,,0.00,VWS V14.01,2013-01-26 20:58:00,
2013-01-26 22:00:00,45.9,30.7,29.81,NE,49,6.0,14.0,55,0.00,,,0.00,VWS V14.01,2013-01-26 21:00:00,
2013-01-26 22:03:00,46.0,30.8,29.81,NE,54,7.0,14.0,55,0.00,,,0.00,VWS V14.01,2013-01-26 21:03:00,
2013-01-26 22:08:00,45.9,31.1,29.81,ENE,67,7.0,10.0,56,0.00,,,0.00,VWS V14.01,2013-01-26 21:08:00,
2013-01-26 22:10:00,45.6,30.8,29.81,ENE,64,5.0,10.0,56,0.00,,,0.00,VWS V14.01,2013-01-26 21:10:00,
2013-01-26 22:13:00,45.6,30.8,29.81,ENE,65,5.0,10.0,56,0.00,,,0.00,VWS V14.01,2013-01-26 21:13:00,
2013-01-26 22:18:00,45.5,31.2,29.81,East,85,11.0,12.0,57,0.00,,,0.00,VWS V14.01,2013-01-26 21:18:00,
2013-01-26 22:20:00,45.5,30.7,29.82,ENE,77,8.0,12.0,56,0.00,,,0.00,VWS V14.01,2013-01-26 21:20:00,
2013-01-26 22:23:00,45.5,30.7,29.82,ENE,71,9.0,12.0,56,0.00,,,0.00,VWS V14.01,2013-01-26 21:23:00,
2013-01-26 22:28:00,45.7,30.5,29.82,ENE,68,5.0,13.0,55,0.00,,,0.00,VWS V14.01,2013-01-26 21:28:00,
2013-01-26 22:30:00,45.7,30.5,29.82,ENE,74,5.0,13.0,55,0.00,,,0.00,VWS V14.01,2013-01-26 21:30:00,
2013-01-26 22:33:00,45.7,30.5,29.82,East,79,8.0,13.0,55,0.00,,,0.00,VWS V14.01,2013-01-26 21:33:00,
2013-01-26 22:38:00,45.8,30.6,29.82,East,82,7.0,15.0,55,0.00,,,0.00,VWS V14.01,2013-01-26 21:38:00,
2013-01-26 22:40:00,45.7,30.5,29.82,ENE,78,8.0,16.0,55,0.00,,,0.00,VWS V14.01,2013-01-26 21:40:00,
2013-01-26 22:43:00,45.8,30.6,29.82,ENE,63,9.0,16.0,55,0.00,,,0.00,VWS V14.01,2013-01-26 21:43:00,
2013-01-26 22:48:00,45.7,30.5,29.82,ENE,72,9.0,12.0,55,0.00,,,0.00,VWS V14.01,2013-01-26 21:48:00,
2013-01-26 22:50:00,45.7,30.5,29.82,NE,55,6.0,15.0,55,0.00,,,0.00,VWS V14.01,2013-01-26 21:50:00,
2013-01-26 22:53:00,45.9,30.7,29.82,ENE,57,5.0,15.0,55,0.00,,,0.00,VWS V14.01,2013-01-26 21:53:00,
2013-01-26 22:58:00,45.4,30.6,29.82,NE,55,8.0,11.0,56,0.00,,,0.00,VWS V14.01,2013-01-26 21:58:00,
2013-01-26 23:00:00,45.8,30.6,29.82,ENE,58,5.0,15.0,55,0.00,,,0.00,VWS V14.01,2013-01-26 22:00:00,
2013-01-26 23:03:00,45.8,30.6,29.82,ENE,73,10.0,15.0,55,0.00,,,0.00,VWS V14.01,2013-01-26 22:03:00,
2013-01-26 23:08:00,45.4,30.6,29.82,NE,55,8.0,11.0,56,0.00,,,0.00,VWS V14.01,2013-01-26 22:08:00,
2013-01-26 23:10:00,45.0,30.7,29.83,NE,37,6.0,11.0,57,0.00,,,0.00,VWS V14.01,2013-01-26 22:10:00,
2013-01-26 23:13:00,45.0,30.7,29.83,NE,49,5.0,11.0,57,0.00,,,0.00,VWS V14.01,2013-01-26 22:13:00,
2013-01-26 23:18:00,44.9,31.0,29.83,NE,49,6.0,8.0,58,0.00,,,0.00,VWS V14.01,2013-01-26 22:18:00,
2013-01-26 23:20:00,44.8,30.9,29.83,NNE,32,4.0,10.0,58,0.00,,,0.00,VWS V14.01,2013-01-26 22:20:00,
2013-01-26 23:23:00,44.8,30.9,29.83,NE,44,10.0,10.0,58,0.00,,,0.00,VWS V14.01,2013-01-26 22:23:00,
2013-01-26 23:28:00,45.0,31.1,29.83,NE,40,5.0,10.0,58,0.00,,,0.00,VWS V14.01,2013-01-26 22:28:00,
2013-01-26 23:30:00,45.1,30.8,29.83,ENE,61,8.0,11.0,57,0.00,,,0.00,VWS V14.01,2013-01-26 22:30:00,
2013-01-26 23:33:00,45.0,30.7,29.83,ENE,63,7.0,10.0,57,0.00,,,0.00,VWS V14.01,2013-01-26 22:33:00,
2013-01-26 23:39:00,45.2,30.9,29.82,NE,49,11.0,11.0,57,0.00,,,0.00,VWS V14.01,2013-01-26 22:39:00,
2013-01-26 23:40:00,45.1,30.8,29.82,ENE,73,8.0,11.0,57,0.00,,,0.00,VWS V14.01,2013-01-26 22:40:00,
2013-01-26 23:44:00,45.2,30.9,29.82,ENE,61,9.0,11.0,57,0.00,,,0.00,VWS V14.01,2013-01-26 22:44:00,
2013-01-26 23:49:00,45.1,30.8,29.82,ENE,59,10.0,12.0,57,0.00,,,0.00,VWS V14.01,2013-01-26 22:49:00,
2013-01-26 23:50:00,45.0,30.7,29.82,ENE,67,5.0,12.0,57,0.00,,,0.00,VWS V14.01,2013-01-26 22:50:00,
2013-01-26 23:54:00,45.0,30.7,29.82,ENE,72,7.0,12.0,57,0.00,,,0.00,VWS V14.01,2013-01-26 22:54:00,
2013-01-26 23:59:00,44.8,30.9,29.82,East,82,8.0,9.0,58,0.00,,,0.00,VWS V14.01,2013-01-26 22:59:00,